This demonstration page uses our WeatherBlox Daily Observations layout. Learn more.

Left ArrowRight Arrow

38.80484, -77.04692

Hourly Observations for August 26, 2019

Temp ( °F °C ) Dew Point ( °F °C ) Humidity (%) Winds ( mph kmh ) Pressure ( in mb ) Visibility ( mi km ) Precip ( " mm )
12:52 am 00:52 Mostly Cloudy 67 19.4 58 14.4 73 73 NE 8 13 30.19 1022 10 16 0.00 0.00
1:52 am 01:52 Mostly Cloudy 66 18.9 58 14.4 75 75 NNE 8 13 30.18 1022 10 16 0.00 0.00
2:52 am 02:52 Mostly Cloudy 66 18.9 58 14.4 75 75 NNE 10 17 30.17 1022 10 16 0.00 0.00
3:52 am 03:52 Mostly Cloudy 65 18.3 59 15 81 81 NNE 9 15 30.17 1022 10 16 0.00 0.00
4:52 am 04:52 Mostly Clear 65 18.3 59 15 81 81 N 10 17 30.17 1022 10 16 0.00 0.00
5:34 am 05:34 Mostly Cloudy 65 18.3 59 15 81 81 NNE 8 13 30.18 1022 10 16 0.00 0.00
5:52 am 05:52 Mostly Cloudy 65 18.3 58 14.4 78 78 NNE 8 13 30.18 1022 10 16 0.00 0.00
6:42 am 06:42 Mostly Cloudy 65 18.3 58 14.4 78 78 NNE 9 15 30.19 1022 10 16 0.00 0.00
6:52 am 06:52 Mostly Cloudy 65 18.3 58 14.4 78 78 NNE 9 15 30.19 1022 10 16 0.00 0.00
7:32 am 07:32 Mostly Cloudy 65 18.3 58 14.4 78 78 NNE 9 15 30.20 1023 10 16 0.00 0.00
7:52 am 07:52 Mostly Cloudy 65 18.3 59 15 81 81 NE 10 17 30.19 1022 10 16 0.00 0.00
8:35 am 08:35 Partly Cloudy 67 19.4 59 15 76 76 NNE 12 19 30.19 1022 10 16 0.00 0.00
8:52 am 08:52 Partly Cloudy 68 20 60 15.6 76 76 NE 10 17 30.18 1022 10 16 0.00 0.00
9:15 am 09:15 Mostly Cloudy 68 20 60 15.6 76 76 NNE 10 17 30.20 1023 10 16 0.00 0.00
9:52 am 09:52 Mostly Cloudy 70 21.1 60 15.6 71 71 NE 9 15 30.19 1022 10 16 0.00 0.00
10:52 am 10:52 Mostly Cloudy 74 23.3 61 16.1 64 64 NE 8 13 30.19 1022 10 16 0.00 0.00
10:59 am 10:59 Mostly Cloudy 73 22.8 60 15.6 64 64 NE 10 17 30.19 1022 10 16 0.00 0.00
11:31 am 11:31 Mostly Cloudy 73 22.8 60 15.6 64 64 NE 12 19 30.18 1022 10 16 0.00 0.00
11:43 am 11:43 Mostly Cloudy 74 23.3 60 15.6 62 62 NE 12 19 30.18 1022 10 16 0.00 0.00
11:52 am 11:52 Mostly Cloudy 74 23.3 60 15.6 62 62 NE 9 15 30.17 1022 10 16 0.00 0.00
12:52 pm 12:52 Mostly Cloudy 74 23.3 60 15.6 62 62 ENE 12 19 30.15 1021 10 16 0.00 0.00
1:52 pm 13:52 Cloudy 75 23.9 59 15 58 58 ENE 13 20 30.15 1021 10 16 0.00 0.00
2:52 pm 14:52 Cloudy 74 23.3 60 15.6 62 62 ENE 8 13 30.14 1021 10 16 0.00 0.00
3:52 pm 15:52 Cloudy 74 23.3 60 15.6 62 62 ESE 10 17 30.13 1020 10 16 0.00 0.00
4:52 pm 16:52 Cloudy 74 23.3 60 15.6 62 62 ESE 14 22 30.11 1020 10 16 0.00 0.00
5:52 pm 17:52 Cloudy 73 22.8 60 15.6 64 64 E 10 17 30.12 1020 10 16 0.00 0.00
6:52 pm 18:52 Cloudy 73 22.8 60 15.6 64 64 E 10 17 30.11 1020 10 16 0.00 0.00
7:52 pm 19:52 Cloudy 72 22.2 60 15.6 66 66 ENE 13 20 30.10 1019 10 16 0.00 0.00
8:52 pm 20:52 Mostly Cloudy 71 21.7 60 15.6 68 68 E 13 20 30.11 1020 10 16 0.00 0.00
9:52 pm 21:52 Partly Cloudy 71 21.7 60 15.6 68 68 E 12 19 30.12 1020 10 16 0.00 0.00
10:52 pm 22:52 Cloudy 70 21.1 59 15 68 68 ESE 6 9 30.13 1020 10 16 0.00 0.00
11:52 pm 23:52 Cloudy 69 20.6 59 15 70 70 SE 6 9 30.13 1020 10 16 0.00 0.00

Powered by AerisWeather